Location: Hains Lake
(37.8540°N, 99.8578°W)
Time: 15:56:46
(UTC+00:00)

Tiros 1 despin weight - All Passes

Search period start: 19 April 2021 00:00
Search period end: 29 April 2021 00:00
Orbit: 593 x 641 km, 48.2° (Epoch: 18 April)

Date Brightness Start Highest point End Pass type
(mag) Time Alt. Az. Time Alt. Az. Time Alt. Az.
19 Apr - 09:57:41 10° SSE 09:59:39 13° SE 10:01:35 10° ESE visible
19 Apr - 11:36:00 10° SW 11:40:36 75° SE 11:45:09 10° ENE daylight
19 Apr - 13:18:23 10° W 13:22:28 31° NNW 13:26:30 10° NE daylight
19 Apr - 15:01:30 10° NW 15:05:00 21° N 15:08:29 10° NE daylight
19 Apr - 16:43:18 10° NW 16:47:28 36° NNE 16:51:35 10° E daylight
19 Apr - 18:24:48 10° WNW 18:29:08 52° SW 18:33:24 10° SE daylight
20 Apr - 10:11:50 10° S 10:15:39 26° SE 10:19:27 10° E visible
20 Apr - 11:52:23 10° WSW 11:56:57 62° NNW 12:01:28 10° NE daylight
20 Apr - 13:35:24 10° WNW 13:39:08 24° N 13:42:52 10° NE daylight
20 Apr - 15:18:05 10° NW 15:21:46 24° N 15:25:23 10° ENE daylight
20 Apr - 16:59:32 10° NW 17:03:58 58° NNE 17:08:20 10° ESE daylight
20 Apr - 18:41:34 10° WNW 18:45:15 26° SW 18:48:55 10° SSE daylight
21 Apr - 10:27:18 10° SW 10:31:47 50° SE 10:36:13 10° ENE visible
21 Apr - 12:09:08 10° W 12:13:27 38° NNW 12:17:43 10° NE daylight
21 Apr - 13:52:20 10° NW 13:55:53 22° N 13:59:24 10° NE daylight
21 Apr - 15:34:27 10° NW 15:38:27 30° NNE 15:42:23 10° E daylight
21 Apr - 17:15:51 10° WNW 17:20:20 79° SW 17:24:45 10° SE daylight
21 Apr - 18:59:22 10° WSW 19:01:15 12° SW 19:03:07 10° SSW daylight
22 Apr - 09:03:56 10° S 09:06:57 17° SE 09:09:57 10° E visible
22 Apr - 10:43:24 10° WSW 10:48:03 86° NNW 10:52:38 10° NE visible
22 Apr - 12:26:05 10° WNW 12:30:03 28° NNW 12:33:59 10° NE daylight
22 Apr - 14:09:04 10° NW 14:12:39 22° N 14:16:11 10° ENE daylight
22 Apr - 15:50:43 10° NW 15:55:02 43° NNE 15:59:16 10° E daylight
22 Apr - 17:32:22 10° WNW 17:36:33 39° SW 17:40:39 10° SSE daylight
23 Apr - 09:18:49 10° SSW 09:23:01 34° SE 09:27:10 10° ENE visible
23 Apr - 10:59:57 10° WSW 11:04:27 50° NNW 11:08:55 10° NE visible
23 Apr - 12:43:04 10° WNW 12:46:45 23° N 12:50:24 10° NE daylight
23 Apr - 14:25:33 10° NW 14:29:23 26° NNE 14:33:09 10° ENE daylight
23 Apr - 16:06:58 10° NW 16:11:28 73° NNE 16:15:54 10° ESE daylight
23 Apr - 17:49:23 10° W 17:52:37 20° SW 17:55:48 10° S daylight
24 Apr - 07:57:06 10° SE 07:58:17 11° SE 07:59:29 10° ESE visible
24 Apr - 09:34:34 10° SW 09:39:12 67° SE 09:43:46 10° ENE visible
24 Apr - 11:16:47 10° W 11:20:59 33° NNW 11:25:10 10° NE visible
24 Apr - 12:59:57 10° NW 13:03:31 22° N 13:07:03 10° NE daylight
24 Apr - 14:41:52 10° NW 14:46:01 34° NNE 14:50:07 10° E daylight
24 Apr - 16:23:20 10° WNW 16:27:46 60° SW 16:32:08 10° SE daylight
25 Apr - 08:10:37 10° S 08:14:16 23° SE 08:17:54 10° E visible
25 Apr - 09:50:52 10° WSW 09:55:30 69° NNW 10:00:07 10° NE visible
25 Apr - 11:33:47 10° WNW 11:37:39 26° NNW 11:41:29 10° NE daylight
25 Apr - 13:16:35 10° NW 13:20:17 23° N 13:23:56 10° ENE daylight
25 Apr - 14:58:07 10° NW 15:02:34 53° NNE 15:06:55 10° ESE daylight
25 Apr - 16:40:01 10° WNW 16:43:55 30° SW 16:47:47 10° SSE daylight
26 Apr - 08:25:56 10° SSW 08:30:22 45° SE 08:34:47 10° ENE visible
26 Apr - 10:07:33 10° W 10:11:58 42° NNW 10:16:21 10° NE visible
26 Apr - 11:50:45 10° WNW 11:54:23 22° N 11:57:59 10° NE daylight
26 Apr - 13:32:59 10° NW 13:36:59 29° NNE 13:40:54 10° ENE daylight
26 Apr - 15:14:24 10° WNW 15:18:56 88° SW 15:23:24 10° SE daylight
26 Apr - 16:57:27 10° W 16:59:55 15° SW 17:02:23 10° SSW daylight
27 Apr - 07:02:54 10° SSE 07:05:34 15° SE 07:08:14 10° E visible
27 Apr - 08:41:56 10° SW 08:46:36 85° SE 08:51:15 10° ENE visible
27 Apr - 10:24:27 10° WNW 10:28:33 30° NNW 10:32:37 10° NE visible
27 Apr - 12:07:31 10° NW 12:11:09 22° N 12:14:44 10° NE daylight
27 Apr - 13:49:16 10° NW 13:53:35 40° NNE 13:57:49 10° E daylight
27 Apr - 15:30:52 10° WNW 15:35:11 45° SW 15:39:25 10° SSE daylight
28 Apr - 07:17:31 10° SSW 07:21:35 30° SE 07:25:39 10° ENE visible
28 Apr - 08:58:23 10° WSW 09:02:59 55° NNW 09:07:32 10° NE visible
28 Apr - 10:41:28 10° WNW 10:45:15 24° N 10:49:00 10° NE visible
28 Apr - 12:24:03 10° NW 12:27:53 25° NNE 12:31:39 10° ENE daylight
28 Apr - 14:05:31 10° NW 14:10:03 66° NNE 14:14:30 10° ESE daylight
28 Apr - 15:47:44 10° W 15:51:16 23° SW 15:54:45 10° S daylight
